Temp
-4 -4 -4 -5 -4 -5 -5 -5 -5 -6 -6 -7 -7 -8 -8 -8 -7 -8 -7 -7 -7 -6 -6 -6 -5 -5 -5 -5 -6 -6 -6 -6 -6 -6 -6 -6 -6 -6 -6 -6 -6 -6 -6 -6
-4 -4 -5 -5 -5 -5 -5 -6 -6 -7 -6 -6 -7 -8 -8 -8 -7 -7 -7 -6 -6 -6 -6 -6 -6 -5 -5 -6 -6 -6 -6 -6 -6 -6 -6 -6 -6 -6 -6 -6 -6 -6 -6 -6
-4 -5 -5 -5 -4 -5 -5 -5 -6 -6 -7 -6 -7 -7 -7 -7 -7 -7 -7 -7 -6 -5 -5 -5 -5 -5 -6 -6 -6 -6 -6 -6 -6 -6 -6 -6 -6 -6 -6 -6 -6 -6 -6 -6
-4 -4 -4 -4 -4 -5 -5 -6 -6 -6 -6 -6 -6 -6 -8 -8 -8 -7 -7 -7 -6 -6 -5 -5 -5 -5 -6 -6 -6 -6 -6 -6 -6 -6 -6 -6 -6 -6 -6 -6 -6 -6 -6 -6
-3 -4 -5 -4 -5 -5 -5 -6 -6 -7 -7 -7 -6 -6 -7 -8 -7 -7 -7 -7 -6 -6 -5 -5 -5 -5 -6 -6 -6 -6 -6 -6 -6 -6 -6 -6 -6 -6 -5 -6 -6 -6 -6 -6
-4 -4 -4 -5 -5 -4 -5 -5 -6 -7 -7 -7 -5 -5 -5 -6 -6 -7 -7 -7 -6 -6 -5 -5 -5 -5 -5 -5 -5 -5 -5 -5 -6 -6 -6 -6 -6 -5 -6 -6 -5 -5 -6 -6
-4 -3 -4 -4 -4 -4 -4 -4 -5 -6 -5 -3 -5 -4 -3 -6 -6 -6 -7 -7 -6 -6 -5 -5 -5 -5 -5 -5 -5 -5 -5 -5 -5 -5 -5 -6 -6 -5 -5 -5 -5 -5 -6 -6
-4 -4 -4 -3 -3 -3 -3 -3 -3 -3 -3 -4 -5 -3 -2 -5 -5 -6 -7 -7 -7 -6 -5 -5 -5 -5 -5 -5 -5 -5 -5 -5 -5 -5 -5 -5 -5 -5 -5 -5 -6 -6 -6 -6
-4 -4 -4 -4 -4 -4 -3 -3 -4 -4 -4 -3 -5 -3 -4 -4 -5 -5 -6 -6 -6 -6 -6 -5 -5 -5 -5 -4 -5 -5 -4 -4 -4 -5 -5 -5 -5 -5 -6 -6 -5 -6 -6 -6
-4 -4 -4 -5 -5 -5 -4 -5 -5 -4 -4 -4 -3 -3 -3 -4 -5 -5 -6 -5 -5 -5 -5 -5 -5 -5 -5 -5 -5 -5 -4 -4 -5 -4 -4 -5 -5 -6 -6 -6 -6 -6 -6 -6
-5 -5 -5 -4 -4 -4 -4 -4 -4 -4 -4 -4 -3 -3 -3 -4 -5 -5 -5 -6 -5 -5 -5 -5 -5 -6 -6 -6 -5 -5 -4 -4 -4 -4 -5 -6 -6 -6 -7 -7 -7 -6 -6 -6
-5 -5 -5 -4 -4 -5 -5 -4 -4 -4 -3 -3 -2 -4 -3 -4 -4 -5 -5 -5 -6 -6 -6 -7 -6 -6 -6 -6 -5 -5 -5 -5 -5 -5 -5 -5 -5 -6 -6 -6 -6 -6 -6 -6
-6 -5 -6 -5 -5 -5 -5 -4 -4 -4 -4 -3 -3 -3 -2 -4 -4 -5 -5 -5 -6 -5 -6 -6 -7 -6 -6 -5 -5 -5 -5 -5 -5 -5 -5 -5 -5 -6 -6 -6 -5 -6 -6 -6
-7 -7 -6 -6 -6 -6 -5 -4 -4 -4 -3 -3 -2 -3 -2 -3 -4 -4 -5 -5 -5 -6 -6 -6 -5 -5 -6 -6 -6 -6 -6 -6 -6 -5 -5 -5 -5 -6 -6 -5 -5 -6 -6 -7
-8 -8 -7 -7 -6 -5 -5 -5 -4 -3 -3 -3 -3 -2 -3 -3 -4 -5 -4 -5 -5 -6 -5 -6 -6 -6 -7 -6 -6 -6 -6 -6 -6 -6 -6 -5 -6 -6 -6 -6 -6 -7 -7 -7
-9 -9 -7 -7 -7 -6 -5 -5 -4 -4 -4 -4 -3 -3 -3 -3 -3 -4 -5 -4 -5 -5 -5 -6 -6 -6 -6 -6 -6 -6 -6 -6 -6 -6 -5 -6 -6 -6 -6 -7 -7 -7 -7 -7
-10 -9 -8 -8 -8 -7 -6 -5 -4 -5 -4 -4 -4 -4 -4 -4 -4 -4 -4 -5 -5 -5 -5 -5 -6 -6 -6 -7 -6 -6 -6 -6 -6 -6 -6 -6 -6 -6 -7 -7 -7 -7 -7 -8
-11 -10 -9 -9 -8 -7 -6 -7 -6 -6 -5 -5 -5 -5 -4 -4 -4 -4 -5 -5 -5 -5 -5 -5 -5 -6 -6 -6 -6 -6 -6 -6 -6 -6 -6 -6 -6 -6 -7 -7 -7 -7 -7 -8
-12 -11 -10 -10 -8 -8 -7 -7 -6 -5 -5 -5 -5 -4 -4 -4 -4 -4 -5 -5 -5 -5 -5 -5 -5 -5 -5 -5 -6 -6 -6 -6 -6 -6 -6 -6 -6 -6 -7 -7 -7 -8 -8 -8
-14 -12 -11 -10 -10 -8 -9 -7 -7 -6 -6 -5 -5 -5 -5 -5 -4 -4 -5 -5 -5 -5 -5 -4 -5 -5 -4 -5 -5 -5 -5 -5 -6 -7 -7 -6 -7 -6 -6 -7 -7 -8 -8 -7
-15 -14 -12 -12 -10 -9 -9 -8 -7 -7 -8 -6 -6 -5 -4 -4 -4 -4 -4 -5 -5 -5 -5 -4 -4 -4 -4 -4 -4 -4 -5 -5 -6 -6 -6 -6 -7 -7 -7 -6 -6 -6 -7 -7
-16 -15 -13 -12 -11 -10 -9 -8 -7 -8 -6 -5 -5 -4 -4 -4 -4 -4 -4 -4 -5 -5 -5 -5 -4 -4 -4 -4 -4 -4 -4 -5 -6 -6 -6 -6 -7 -7 -7 -7 -7 -7 -7 -7
-17 -15 -15 -13 -11 -9 -10 -9 -8 -7 -6 -6 -5 -5 -5 -5 -5 -5 -5 -5 -5 -5 -5 -5 -5 -5 -4 -5 -5 -4 -5 -5 -5 -6 -6 -6 -6 -7 -7 -7 -7 -7 -7 -7
-17 -16 -15 -13 -11 -9 -8 -7 -9 -8 -8 -7 -7 -7 -6 -6 -6 -5 -5 -5 -5 -5 -5 -5 -5 -5 -5 -5 -5 -5 -5 -5 -5 -5 -6 -6 -7 -7 -7 -8 -7 -7 -7 -8
-18 -16 -15 -13 -12 -11 -10 -9 -8 -9 -8 -8 -7 -7 -6 -6 -7 -6 -6 -6 -5 -5 -5 -5 -6 -5 -5 -5 -5 -5 -5 -5 -6 -6 -6 -6 -6 -7 -8 -8 -8 -8 -8 -8
-20 -19 -15 -12 -14 -13 -12 -10 -8 -8 -7 -7 -6 -6 -6 -7 -7 -7 -7 -7 -6 -6 -6 -6 -6 -6 -6 -6 -6 -6 -6 -6 -6 -6 -7 -7 -7 -8 -8 -8 -8 -8 -8 -8
Height
5844 5846 5849 5855 5857 5862 5864 5868 5873 5877 5879 5883 5885 5884 5886 5888 5889 5888 5889 5888 5887 5889 5891 5894 5896 5900 5904 5907 5909 5912 5915 5918 5922 5925 5928 5930 5932 5934 5936 5938 5938 5939 5938 5938
5840 5844 5844 5845 5848 5854 5860 5864 5870 5872 5874 5879 5881 5882 5883 5884 5886 5886 5887 5887 5886 5888 5890 5892 5896 5899 5903 5906 5908 5911 5914 5917 5920 5924 5927 5931 5933 5934 5936 5937 5937 5938 5938 5938
5835 5838 5837 5840 5843 5846 5852 5858 5863 5868 5869 5874 5877 5878 5879 5882 5883 5883 5885 5886 5887 5886 5888 5892 5895 5899 5901 5905 5908 5910 5912 5915 5919 5923 5926 5929 5931 5932 5934 5935 5936 5936 5937 5937
5826 5830 5833 5836 5839 5843 5847 5853 5856 5858 5861 5868 5871 5875 5877 5879 5880 5880 5882 5884 5887 5888 5888 5890 5894 5897 5901 5903 5905 5908 5911 5914 5917 5922 5925 5927 5929 5931 5933 5935 5936 5936 5936 5936
5825 5826 5831 5833 5838 5838 5845 5845 5849 5854 5855 5859 5862 5866 5871 5872 5875 5878 5880 5883 5885 5887 5889 5888 5892 5896 5898 5900 5904 5907 5909 5912 5916 5919 5922 5925 5927 5929 5931 5932 5933 5934 5934 5934
5813 5817 5817 5827 5827 5831 5835 5837 5842 5846 5849 5844 5855 5860 5865 5866 5873 5876 5878 5879 5882 5885 5888 5888 5889 5892 5897 5901 5903 5907 5910 5913 5915 5917 5919 5922 5924 5927 5928 5929 5930 5931 5932 5932
5803 5807 5813 5816 5818 5823 5826 5829 5833 5836 5836 5837 5850 5851 5861 5859 5867 5872 5874 5876 5878 5882 5884 5886 5889 5892 5896 5900 5903 5906 5909 5911 5913 5916 5918 5920 5921 5924 5925 5926 5927 5928 5929 5929
5792 5797 5804 5810 5814 5818 5821 5825 5826 5829 5834 5838 5840 5842 5852 5858 5862 5866 5869 5872 5874 5876 5881 5884 5887 5890 5893 5897 5900 5902 5906 5908 5910 5913 5915 5917 5918 5920 5922 5923 5924 5924 5926 5927
5778 5787 5793 5800 5807 5811 5815 5814 5830 5828 5830 5833 5837 5841 5845 5851 5856 5860 5864 5867 5870 5874 5877 5882 5885 5888 5890 5893 5896 5900 5903 5905 5908 5910 5911 5913 5915 5917 5918 5919 5920 5921 5922 5924
5766 5774 5780 5789 5796 5800 5805 5816 5814 5818 5821 5827 5833 5837 5840 5846 5850 5856 5859 5864 5868 5871 5875 5879 5882 5885 5888 5890 5893 5896 5899 5902 5904 5906 5908 5910 5911 5912 5913 5914 5916 5918 5919 5920
5752 5762 5768 5774 5783 5792 5796 5800 5806 5813 5818 5823 5829 5834 5837 5841 5845 5851 5856 5860 5865 5868 5872 5877 5880 5883 5887 5888 5891 5895 5897 5899 5901 5903 5905 5906 5907 5907 5908 5910 5911 5914 5915 5917
5740 5748 5754 5766 5775 5781 5788 5795 5802 5804 5813 5817 5823 5830 5831 5837 5840 5843 5850 5855 5860 5865 5869 5873 5877 5880 5883 5886 5889 5892 5894 5897 5899 5900 5901 5902 5903 5904 5905 5906 5907 5909 5910 5911
5723 5735 5743 5749 5759 5764 5774 5784 5789 5796 5806 5809 5815 5823 5826 5831 5835 5838 5842 5846 5852 5859 5863 5868 5872 5876 5880 5883 5886 5890 5892 5894 5895 5896 5898 5900 5901 5902 5903 5904 5904 5905 5906 5906
5711 5721 5731 5742 5754 5757 5763 5771 5777 5787 5795 5803 5808 5815 5822 5827 5831 5835 5838 5842 5846 5851 5856 5860 5865 5870 5875 5878 5882 5885 5888 5889 5891 5893 5895 5897 5898 5899 5900 5901 5902 5904 5903 5903
5694 5707 5717 5725 5730 5741 5750 5760 5767 5776 5787 5793 5805 5810 5817 5822 5826 5829 5833 5837 5841 5845 5849 5853 5859 5864 5868 5872 5876 5880 5882 5884 5887 5889 5891 5894 5894 5895 5895 5896 5898 5898 5899 5900
5678 5689 5701 5712 5722 5731 5738 5747 5757 5767 5777 5785 5796 5801 5808 5814 5820 5824 5828 5831 5835 5838 5843 5848 5853 5858 5863 5867 5870 5874 5877 5880 5881 5884 5887 5888 5889 5890 5891 5892 5893 5894 5896 5897
5663 5673 5689 5701 5710 5717 5724 5738 5748 5756 5765 5775 5786 5794 5802 5807 5815 5820 5824 5827 5830 5832 5837 5841 5845 5850 5855 5860 5864 5868 5871 5872 5876 5879 5881 5883 5885 5886 5886 5886 5887 5889 5891 5891
5647 5660 5673 5685 5691 5702 5722 5726 5732 5742 5756 5766 5775 5782 5791 5797 5803 5810 5814 5818 5822 5826 5830 5835 5839 5844 5848 5850 5855 5861 5864 5867 5870 5872 5874 5877 5879 5881 5881 5882 5884 5885 5886 5887
5633 5645 5657 5670 5681 5695 5700 5710 5719 5727 5741 5749 5760 5765 5778 5785 5793 5801 5808 5813 5818 5821 5826 5829 5834 5836 5839 5842 5850 5852 5856 5860 5863 5867 5869 5871 5872 5873 5875 5878 5879 5877 5877 5879
5619 5630 5642 5654 5666 5678 5690 5696 5706 5713 5725 5736 5743 5753 5764 5776 5782 5791 5797 5803 5807 5810 5814 5818 5824 5827 5832 5838 5841 5844 5850 5852 5856 5861 5864 5864 5865 5866 5869 5870 5870 5870 5870 5870
5606 5615 5626 5638 5648 5663 5671 5679 5691 5703 5714 5722 5729 5741 5750 5762 5770 5781 5787 5793 5798 5803 5808 5810 5815 5820 5826 5830 5833 5837 5840 5845 5852 5851 5855 5857 5858 5860 5860 5861 5863 5863 5864 5863
5596 5604 5615 5625 5633 5639 5656 5668 5681 5684 5695 5710 5719 5729 5738 5749 5758 5767 5777 5782 5789 5794 5797 5802 5807 5812 5817 5823 5826 5830 5833 5837 5838 5842 5845 5849 5851 5852 5853 5854 5855 5855 5855 5855
5585 5592 5601 5609 5623 5633 5637 5650 5657 5675 5685 5696 5706 5718 5727 5738 5746 5754 5765 5773 5779 5783 5787 5792 5797 5803 5809 5813 5817 5822 5825 5828 5831 5834 5837 5839 5841 5843 5844 5846 5845 5846 5846 5846
5574 5578 5585 5592 5609 5617 5625 5636 5651 5657 5672 5681 5694 5704 5715 5726 5736 5742 5750 5761 5768 5773 5778 5782 5787 5792 5799 5803 5807 5812 5815 5819 5822 5824 5827 5829 5831 5833 5834 5835 5835 5835 5836 5836
5562 5566 5574 5582 5593 5602 5608 5617 5631 5642 5650 5664 5676 5690 5700 5712 5723 5731 5739 5749 5757 5762 5767 5772 5777 5781 5787 5792 5796 5800 5804 5808 5811 5815 5818 5820 5821 5822 5824 5824 5824 5825 5824 5824
5555 5556 5558 5570 5571 5574 5588 5598 5612 5624 5636 5651 5665 5676 5689 5698 5710 5720 5728 5735 5745 5752 5756 5761 5768 5772 5776 5781 5786 5790 5794 5797 5801 5803 5806 5808 5810 5811 5812 5812 5812 5813 5813 5812
Wind_Speed
15 17 14 21 24 22 23 27 26 32 33 27 27 25 19 18 19 16 15 17 18 19 18 20 23 24 21 21 18 16 14 15 16 17 17 17 17 16 16 14 12 9 7 4
18 8 18 25 30 26 24 22 27 31 36 29 26 31 26 24 22 21 18 18 20 18 18 19 22 24 23 21 19 16 16 16 17 15 15 16 16 14 13 12 11 8 6 4
19 20 22 25 30 33 31 27 31 31 34 33 28 28 32 29 26 24 19 19 21 22 20 21 23 23 26 23 20 18 18 19 18 16 15 15 16 16 16 12 11 8 5 2
29 28 25 23 25 29 32 30 32 40 38 34 34 27 31 29 25 24 21 18 18 20 21 22 24 26 24 23 23 21 20 18 17 16 16 16 17 16 14 12 11 10 7 4
25 24 23 24 16 24 27 35 36 35 42 39 37 36 35 38 34 24 21 19 20 21 25 24 24 25 27 27 23 22 22 21 19 17 17 16 14 14 14 15 14 12 9 5
35 34 35 26 30 27 30 38 38 38 38 48 35 34 40 39 36 28 23 21 23 23 25 26 27 27 25 22 22 21 20 20 20 21 20 17 16 15 15 15 14 12 10 9
38 40 37 36 36 34 34 39 43 45 44 40 33 36 31 44 37 36 28 26 24 25 27 27 27 25 21 20 19 18 18 18 17 18 18 18 19 16 17 16 15 14 13 11
43 42 41 38 36 33 35 35 40 43 39 39 39 29 20 26 35 37 35 32 28 30 29 29 27 26 25 23 24 23 21 21 20 20 20 21 20 18 18 17 18 17 16 14
51 46 43 42 38 37 32 38 27 37 38 35 30 23 26 24 32 40 37 31 29 29 30 29 27 27 26 25 22 21 21 21 20 21 23 23 23 22 21 21 21 19 18 18
57 53 51 47 42 43 39 30 38 39 40 33 27 23 16 14 30 36 38 31 25 30 30 31 28 27 26 24 23 24 23 22 22 23 21 22 25 26 26 24 22 21 22 21
57 55 56 54 51 45 44 43 40 37 35 31 25 19 12 16 27 33 33 35 29 30 31 28 25 23 23 23 24 22 21 20 20 18 16 18 20 22 24 24 23 23 24 23
58 58 59 57 53 52 48 44 40 43 36 31 23 17 19 19 25 37 34 31 29 30 25 24 24 25 27 28 27 24 22 23 20 20 19 16 17 16 16 18 20 22 22 25
64 60 59 60 58 59 56 51 50 47 41 37 34 29 23 14 24 33 38 38 35 31 28 30 31 30 29 27 25 20 18 17 23 24 21 17 16 16 16 18 19 17 17 18
63 63 61 57 48 53 56 56 56 50 47 43 37 32 23 17 20 30 39 42 40 38 36 35 34 28 32 31 29 24 22 21 20 24 25 17 14 16 19 19 17 14 17 16
69 66 65 64 65 61 58 58 56 53 48 47 40 35 31 24 22 29 36 43 45 46 43 41 39 38 36 34 30 29 25 24 23 20 24 20 19 17 20 23 15 14 13 13
74 73 71 67 64 63 62 61 58 54 50 49 42 39 33 30 29 31 31 40 45 46 45 42 44 41 38 38 36 32 29 28 25 20 15 23 22 18 18 22 18 15 10 9
77 76 73 70 67 66 68 62 60 59 55 51 45 43 33 31 26 27 25 35 44 46 45 44 44 45 44 44 42 37 33 31 27 22 21 21 23 20 22 25 24 19 16 15
81 78 75 75 75 73 66 65 64 60 55 52 50 49 43 41 37 32 33 34 40 44 45 43 44 46 49 48 45 42 39 38 32 29 25 23 21 23 25 27 25 25 24 21
82 80 79 77 78 71 75 72 70 68 64 61 58 57 51 46 42 37 33 35 36 38 39 45 49 47 47 47 47 47 43 43 38 34 27 23 19 22 26 27 25 27 28 28
82 83 82 80 80 78 69 75 76 73 68 65 64 59 53 47 46 41 37 37 40 41 41 41 39 41 38 36 36 36 38 35 39 39 31 24 23 23 27 31 33 33 34 36
82 83 84 83 84 82 83 82 78 74 71 68 67 63 60 54 51 45 42 39 39 41 44 44 40 37 34 31 31 32 34 29 27 31 29 29 28 28 32 34 35 38 40 44
80 86 86 87 87 89 84 82 81 76 77 72 71 67 63 59 56 50 45 43 41 40 43 46 43 40 36 34 35 32 30 33 35 34 33 31 34 35 35 37 39 40 44 43
56 77 89 91 92 87 89 86 85 81 80 75 72 69 68 62 58 55 49 46 43 40 40 42 43 42 40 36 37 36 32 34 35 35 35 35 36 38 39 38 38 42 43 42
43 55 72 87 91 90 91 86 85 83 78 78 74 70 64 59 58 56 51 48 46 44 44 41 40 40 38 38 36 34 35 35 35 35 37 38 40 41 40 38 38 43 45 45
27 38 53 71 81 86 93 91 88 85 86 80 77 73 71 66 58 52 51 50 45 44 43 39 39 39 37 38 36 35 34 34 34 37 38 40 42 44 44 44 41 42 47 49
16 19 34 47 55 74 82 90 91 89 87 82 80 76 70 69 64 58 52 50 44 45 46 43 37 34 34 34 34 35 36 37 36 36 39 42 45 47 48 49 49 48 51 56
Wind_Direction
217 217 214 223 226 223 220 218 208 203 209 196 200 212 222 225 229 232 204 183 177 187 184 182 179 179 180 176 172 171 169 170 175 180 180 180 178 177 181 178 180 180 167 143
218 175 197 201 208 214 218 214 206 208 208 206 207 208 220 219 229 233 208 191 181 184 188 185 187 180 178 178 177 173 174 175 182 183 189 191 184 183 188 187 192 188 179 162
215 199 214 209 207 207 205 203 203 212 213 213 207 213 220 224 233 227 207 204 193 182 182 185 185 185 181 179 177 181 178 185 182 185 188 192 197 196 201 203 199 198 201 170
222 212 217 219 215 213 205 207 211 211 219 217 222 212 215 213 222 228 208 208 205 193 187 183 185 185 185 185 186 186 183 185 186 190 197 202 207 211 217 216 212 209 207 197
225 232 225 227 219 218 204 210 213 217 222 223 226 224 213 217 216 224 215 221 215 197 193 182 185 188 190 192 193 193 189 186 183 189 202 208 210 212 206 211 217 219 221 226
226 220 220 208 211 209 205 211 211 216 222 228 224 227 205 222 216 222 220 224 215 206 200 189 188 192 198 197 197 197 197 197 193 194 204 212 219 215 216 222 227 228 233 245
226 222 222 216 216 211 208 209 209 215 224 241 232 234 199 215 214 219 222 225 222 213 204 198 192 189 195 194 196 197 201 205 204 209 214 220 223 225 231 235 240 241 243 251
233 231 221 222 223 226 220 218 218 221 230 238 238 242 227 215 216 209 216 219 222 214 213 202 196 194 191 195 200 201 204 209 209 214 220 226 227 228 234 243 250 255 253 254
231 226 227 224 225 227 225 224 227 227 235 236 243 247 250 230 207 210 214 217 220 217 213 212 200 199 196 196 197 198 201 208 214 220 225 231 235 236 237 238 247 254 258 259
226 224 227 223 220 222 227 224 223 222 229 234 240 246 250 208 202 210 214 220 228 222 212 213 206 202 199 193 195 199 204 210 219 229 240 244 246 245 243 244 247 250 255 259
218 220 226 222 219 221 222 222 225 224 227 236 240 248 229 197 193 207 213 226 229 221 214 215 214 209 202 197 204 210 214 219 223 218 239 251 248 246 243 242 243 247 253 259
218 221 223 224 222 224 226 228 235 238 233 233 236 235 183 185 196 197 211 219 208 206 205 211 211 212 210 215 212 218 223 230 230 236 249 252 256 252 250 245 243 244 251 257
216 217 218 223 221 223 224 225 229 229 228 228 228 228 206 210 194 202 204 203 202 205 212 220 222 224 226 231 235 229 232 242 232 235 245 253 267 259 250 249 245 243 249 258
217 218 218 224 227 228 225 225 227 228 229 230 227 226 209 202 188 199 208 212 209 207 214 217 224 222 223 225 226 233 241 249 259 254 248 251 268 262 258 256 257 262 261 267
216 216 218 220 221 222 224 225 229 229 228 229 230 232 230 218 190 191 205 213 214 215 218 217 217 215 214 220 227 229 242 255 255 271 272 261 260 263 263 267 270 252 256 267
216 216 218 219 223 227 226 224 228 229 229 230 227 231 225 224 214 203 204 210 217 220 220 221 215 219 221 225 228 231 237 250 250 252 258 251 261 266 264 261 257 252 252 270
214 216 216 219 222 224 226 227 229 230 229 230 227 232 239 235 227 229 219 213 217 219 222 220 217 219 223 226 232 236 239 244 248 246 253 258 264 259 250 250 249 246 248 256
213 216 217 218 220 222 224 227 228 232 232 232 233 234 230 231 229 224 221 218 218 222 225 229 226 225 227 232 235 237 240 247 250 253 260 259 276 261 249 248 255 256 253 256
213 216 218 218 221 220 223 224 226 229 228 230 231 234 228 229 228 231 224 223 225 224 224 227 231 235 236 237 236 242 244 242 250 249 254 262 267 258 258 250 247 249 261 264
215 215 217 219 219 220 221 225 227 229 230 232 232 234 234 232 230 229 226 218 220 226 226 228 231 235 238 243 243 246 248 243 241 247 251 244 249 255 256 245 244 249 256 260
216 216 217 219 221 221 221 224 227 229 232 231 234 232 234 232 231 227 225 224 222 226 233 238 237 236 236 234 236 236 241 240 241 242 241 237 242 256 257 256 257 257 260 265
221 220 221 221 223 224 225 226 228 231 231 230 231 233 234 234 234 232 228 228 227 228 230 236 240 242 240 240 240 238 240 239 240 241 244 244 241 253 257 272 273 267 267 267
225 225 224 225 223 226 227 227 230 229 232 231 234 233 234 235 237 237 232 230 232 232 235 235 237 241 245 245 247 246 235 238 239 240 245 249 253 260 267 269 261 260 261 264
236 233 230 229 227 227 229 231 229 233 230 233 234 236 235 236 239 241 239 233 233 238 236 237 240 241 242 242 245 247 238 235 238 243 248 255 259 260 263 267 258 258 261 262
231 235 238 234 231 232 232 231 232 231 235 230 232 232 234 234 234 236 240 238 233 236 239 240 240 242 242 243 244 245 242 238 239 239 244 249 255 258 262 267 270 264 262 267
239 221 231 232 229 234 233 234 232 232 232 234 234 235 235 235 236 236 237 240 236 235 240 242 239 241 242 241 241 242 243 245 245 246 248 252 257 260 264 266 269 271 272 272